Location: Newark
(44.2003°N, 3.2583°E)
Time: 16:31:33
(UTC+00:00)

SR - Pass Details

Date: 29 October 2019
Orbit: 573 x 882 km, 66.7° (Epoch: 21 November)

Event Time Altitude Azimuth Distance (km) Brightness Sun altitude
Rises 06:26:29 0° 308° (NW) 3,486 ? 0.4°
Reaches altitude 10° 06:31:08 10° 275° (W) 2,538 ? 1.2°
Maximum altitude 06:32:41 11° 260° (W) 2,454 ? 1.4°
Drops below altitude 10° 06:34:13 10° 244° (WSW) 2,519 ? 1.7°
Sets 06:38:48 0° 211° (SSW) 3,405 ? 2.5°
